星链-37552(STARLINK-37552)

导读

STARLINK-37552(NORAD编号69513)是美国太空探索技术公司(SpaceX)星链低轨通信星座的组成卫星,属于Starlink V2 Mini批次,于2026年6月4日由猎鹰9号火箭从卡纳维拉尔角太空军基地发射入轨,是当日Starlink 10-43任务部署的29颗卫星之一。该卫星轨道高度约550公里,轨道倾角53°,运行周期约94分钟,主要用于为全球偏远地区、航空航海等场景提供低延迟高速宽带通信服务,截至2026年6月已完成初始轨道校准,处于在轨功能测试阶段,后续将正式接入星链运营网络。

Basic Information
目录编号:
69513
目录名称:
STARLINK-37552
国际标识:
2026-133F
轨道中心:
EARTH
卫星名称:
星链-37552
卫星全名:
星链-37552(STARLINK-37552)
卫星状态:
在轨 (已飞行85 天)
发射日期:
2026-06-12 UTC
国别 :
美国 (US)
星等 :
--
Orbit Information
数据来源 国际轨道数据
星历时间: 2026-09-05T01:57:15+0800
14小时前
查看轨道信息
半长轴: 6840.831km
偏心率: 0.0000946
轨道倾角: 53.159°
近地点辐角 83.316°
升交点赤经 303.519°
平近点角 276.795°
近地点: 462.046km
远地点: 463.342km
周期: 93.848分钟
每日圈数: 15.344032
Detailed Information
固有亮度:
5
最大亮度:
2.5
卫星平台:
Starlink V1.0
覆盖范围:
全球
运营商:
太空探索技术公司
运营商所在国:
美国
制造商(研发单位):
太空探索技术公司
制造商所在国:
美国
使用方式:
暂无
Satellite Introduction
Starlink 计划是 SpaceX 推出的全球卫星互联网项目,通过发射低轨道卫星,为全球尤其是偏远地区提供高速、低延迟的互联网服务。自 2019 年起,Starlink 已部署数千颗卫星,旨在缩小全球数字鸿沟,推动互联网普及。该项目还为军事、航空等行业提供通信支持,带来广泛经济效益。
2D Orbit Map
3D Orbit Map
Orbit Altitude Analysis Chart
Orbit Inclination Analysis Chart
Orbit Comprehensive Analysis Chart
View Comprehensive Chart
Conjunction Data List
Event ID Objects TCA Miss Dist (km) Collision Risk Probability Collision Risk Index (CRI) Action
CDM_260907-163906-009206-951321
2026-09-07T
16:39:44+0000
0.250 km
中距离
3.029979E-4 高风险 0.85
CDM_260907-124506-009206-951321
2026-09-07T
12:45:15+0000
0.392 km
远距离
1.24258E-4 高风险 0.77
CDM_260907-182404-976606-951321
2026-09-07T
18:24:22+0000
2.646 km
极远距离
1.221895E-6 低风险 0.37
CDM_260907-181306-009206-951321
2026-09-07T
18:13:31+0000
1.991 km
极远距离
9.323128E-7 极低风险 0.34
CDM_260907-141906-009206-951321
2026-09-07T
14:19:02+0000
2.341 km
极远距离
6.762733E-7 极低风险 0.32
CDM_260907-150506-009206-951321
2026-09-07T
15:05:56+0000
2.374 km
极远距离
6.609154E-7 极低风险 0.31